Location: ????????
(54.8751°N, 38.5756°E)
Time: 06:24:16
(UTC+00:00)

Cosmos 1371 Rocket - Visible Passes

Search period start: 13 July 2024 00:00
Search period end: 23 July 2024 00:00
Orbit: 751 x 787 km, 74.0° (Epoch: 12 July)

Date Brightness Start Highest point End Pass type
(mag) Time Alt. Az. Time Alt. Az. Time Alt. Az.
13 Jul 5.2 00:12:04 10° WSW 00:16:58 35° NW 00:21:54 10° NNE visible
13 Jul 5.0 21:54:31 17° SSE 21:58:06 37° ESE 22:02:59 10° NE visible
13 Jul 4.7 23:34:54 10° SW 23:40:06 49° NW 23:45:19 10° NNE visible
14 Jul 5.5 21:18:27 15° SE 21:21:40 25° E 21:25:57 10° NE visible
14 Jul 4.2 22:58:44 14° SW 23:03:19 70° WNW 23:08:41 10° NNE visible
15 Jul 5.9 20:42:22 11° SE 20:45:21 17° E 20:48:36 10° ENE visible
15 Jul 4.1 22:22:39 18° SSW 22:26:38 81° ESE 22:32:00 10° NNE visible
16 Jul 5.7 00:04:52 10° W 00:09:22 27° NW 00:13:52 10° NNE visible
16 Jul 6.3 20:08:13 10° E 20:09:06 10° E 20:09:59 10° E visible
16 Jul 4.4 21:46:32 21° S 21:50:01 55° ESE 21:55:15 10° NNE visible
16 Jul 5.2 23:27:29 10° WSW 23:32:23 35° NW 23:37:19 10° NNE visible
17 Jul 4.9 21:10:24 20° SSE 21:13:30 37° ESE 21:18:23 10° NE visible
17 Jul 4.7 22:50:40 12° SW 22:55:31 49° NW 23:00:43 10° NNE visible
18 Jul 5.4 20:34:14 16° SE 20:37:05 25° E 20:41:21 10° NE visible
18 Jul 4.2 22:14:30 17° SW 22:18:44 70° WNW 22:24:05 10° NNE visible
18 Jul 6.1 23:57:52 10° W 00:01:49 20° NW 00:05:47 10° NNE visible
19 Jul 5.8 19:58:02 12° SE 20:00:45 17° E 20:04:00 10° ENE visible
19 Jul 4.0 21:38:19 20° SSW 21:42:02 82° ESE 21:47:24 10° NNE visible
19 Jul 5.8 23:20:17 10° W 23:24:46 26° NW 23:29:16 10° NNE visible
20 Jul 6.2 19:23:37 10° E 19:24:30 10° E 19:25:24 10° E visible
20 Jul 4.3 21:02:05 22° S 21:05:26 55° ESE 21:10:39 10° NNE visible
20 Jul 5.3 22:42:54 10° WSW 22:47:48 35° NW 22:52:42 10° NNE visible
21 Jul 4.8 20:25:50 20° SSE 20:28:54 37° ESE 20:33:47 10° NE visible
21 Jul 4.8 22:06:05 12° SW 22:10:55 49° NW 22:16:06 10° NNE visible
21 Jul 6.4 23:51:04 10° WNW 23:54:22 16° NNW 23:57:39 10° N visible
22 Jul 5.3 19:49:31 16° SE 19:52:28 25° E 19:56:44 10° NE visible
22 Jul 4.3 21:29:47 16° SW 21:34:08 70° WNW 21:39:29 10° NNE visible
22 Jul 6.2 23:13:17 10° W 23:17:14 20° NW 23:21:10 10° NNE visible
